Voltar ao catálogo

STARLINK-6028

AtivoComunicaçõesVLEO
NORAD 56818·PAYLOAD·🇺🇸 United States

Lançado May 31, 2023 de Vandenberg Space Force Base

Loading…

Próximas Passagens (próximas 24 horas)

TLE

AtualizadoSource: CelesTrak SupGP

Época: Sep 15, 2026, 01:37 UTC

1 56818C 23078BD  26258.06784722 -.00045261  00000+0 -37929-2 0  2586
2 56818  70.0015 226.7852 0003767 270.5067  17.1197 14.98353170    13

Acompanhe STARLINK-6028 em tempo real com AllMySat

Download on the App Store